Date String (YYYY-MM-DD hh:mm:ss) UTC,Instrument flags,Ambient pressure (hPa),Sample flow (lpm),Bypass flow (lpm),Sample temperature (°C),Ambient temperature (°C),ASC tube jacket temperature (°C),LED temperature (°C),Box temperature (°C),Sample RH (%),Span deviation,Mass concentration (μg/m³),Mass concentration (μg/m³),Mass concentration (μg/m³)
DateTimeUTC,F1_M11,P_M11,Q1_M11,Q2_M11,T1_M11,T2_M11,T3_M11,T4_M11,T5_M11,U1_M11,ZSPAN_M11,X2_M11,X0_M11,X1_M11
2022-10-20 02:00:00,,0832.1,4.99,0.00,29.8,27.0,00.0,38.6,31.5,08.3,0000.0,0003.72,0020.06,0001.56
2022-10-20 02:01:00,,0832.1,5.01,0.00,29.8,27.4,00.0,38.6,31.5,08.1,0000.0,0003.72,0019.74,0001.58
2022-10-20 02:02:00,,0832.1,5.00,0.00,29.8,27.6,00.0,38.6,31.5,08.1,0000.0,0003.69,0017.86,0001.58
2022-10-20 02:03:00,,0832.2,5.00,0.00,29.8,27.8,00.0,38.6,31.6,08.0,0000.0,0003.65,0017.68,0001.59
2022-10-20 02:04:00,,0832.2,5.00,0.00,29.8,28.0,00.0,38.6,31.6,08.1,0000.0,0003.57,0017.85,0001.58
2022-10-20 02:05:00,,0832.3,5.00,0.00,29.8,28.1,00.0,38.6,31.6,08.1,0000.0,0003.53,0018.42,0001.57
2022-10-20 02:06:00,,0832.3,5.00,0.00,29.8,28.2,00.0,38.6,31.6,08.2,0000.0,0003.43,0018.74,0001.55
2022-10-20 02:07:00,,0832.3,5.00,0.00,29.8,28.3,00.0,38.6,31.7,08.1,0000.0,0003.40,0018.55,0001.54
2022-10-20 02:08:00,,0832.4,5.00,0.00,29.8,28.4,00.0,38.6,31.7,08.0,0000.0,0003.38,0017.29,0001.53
2022-10-20 02:09:00,,0832.3,5.00,0.00,29.8,28.4,00.0,38.6,31.7,08.0,0000.0,0003.36,0016.66,0001.53
2022-10-20 02:10:00,,0832.4,5.00,0.00,29.8,28.5,00.0,38.6,31.7,08.0,0000.0,0003.31,0016.59,0001.52
2022-10-20 02:11:00,,0832.3,5.00,0.00,29.8,28.5,00.0,38.6,31.8,08.0,0000.0,0003.26,0016.51,0001.51
2022-10-20 02:12:00,,0832.3,5.00,0.00,29.9,28.6,00.0,38.6,31.8,08.0,0000.0,0003.21,0016.30,0001.51
2022-10-20 02:13:00,,0832.3,5.00,0.00,29.9,28.6,00.0,38.7,31.8,08.0,0000.0,0003.17,0016.42,0001.51
2022-10-20 02:14:00,,0832.3,5.00,0.00,29.9,28.7,00.0,38.7,31.8,08.0,0000.0,0003.15,0015.89,0001.51
2022-10-20 02:15:00,,0832.3,5.00,0.00,29.9,28.7,00.0,38.7,31.8,07.9,0000.0,0003.13,0014.39,0001.50
2022-10-20 02:16:00,,0832.3,4.99,0.00,29.9,28.7,00.0,38.7,31.9,07.8,0000.0,0003.11,0013.24,0001.50
2022-10-20 02:17:00,,0832.3,5.00,0.00,30.0,28.7,00.0,38.7,31.9,07.8,0000.0,0003.12,0011.75,0001.52
2022-10-20 02:18:00,,0832.3,5.01,0.00,30.0,28.8,00.0,38.7,31.9,07.7,0000.0,0003.13,0011.45,0001.53
2022-10-20 02:19:00,,0832.3,5.00,0.00,30.0,28.8,00.0,38.7,31.9,07.7,0000.0,0003.09,0011.17,0001.54
2022-10-20 02:20:00,,0832.4,5.01,0.00,30.0,28.8,00.0,38.8,32.0,07.7,0000.0,0003.03,0011.04,0001.54
2022-10-20 02:21:00,,0832.4,5.00,0.00,30.0,28.8,00.0,38.8,32.0,07.6,0000.0,0002.89,0010.44,0001.54
2022-10-20 02:22:00,,0832.4,4.99,0.00,30.1,28.9,00.0,38.8,32.0,07.6,0000.0,0002.84,0009.34,0001.56
2022-10-20 02:23:00,,0832.4,5.00,0.00,30.1,28.9,00.0,38.8,32.0,07.6,0000.0,0002.91,0009.00,0001.55
2022-10-20 02:24:00,,0832.4,4.99,0.00,30.1,28.9,00.0,38.8,32.0,07.6,0000.0,0002.97,0009.16,0001.55
2022-10-20 02:25:00,,0832.5,5.01,0.00,30.1,28.7,00.0,38.8,32.0,07.7,0000.0,0002.98,0009.30,0001.55
2022-10-20 02:26:00,,0832.5,5.00,0.00,30.1,27.2,00.0,38.8,31.9,07.7,0000.0,0003.04,0010.39,0001.57
2022-10-20 02:27:00,,0832.5,5.01,0.00,30.0,26.4,00.0,38.7,31.8,07.8,0000.0,0003.04,0011.22,0001.58
2022-10-20 02:28:00,,0832.5,5.00,0.00,29.9,26.4,00.0,38.7,31.5,07.9,0000.0,0003.05,0011.16,0001.56
2022-10-20 02:29:00,,0832.5,5.00,0.00,29.8,26.7,00.0,38.7,31.5,07.9,0000.0,0003.12,0011.53,0001.55
2022-10-20 02:30:00,,0832.5,5.00,0.00,29.8,27.0,00.0,38.7,31.5,08.0,0000.0,0003.15,0011.30,0001.54
2022-10-20 02:31:00,,0832.5,5.00,0.00,29.7,27.2,00.0,38.6,31.5,08.2,0000.0,0003.17,0011.30,0001.54
2022-10-20 02:32:00,,0832.5,5.00,0.00,29.7,27.4,00.0,38.6,31.5,08.4,0000.0,0003.24,0011.61,0001.54
2022-10-20 02:33:00,,0832.6,5.00,0.00,29.7,27.6,00.0,38.6,31.5,08.3,0000.0,0003.27,0011.42,0001.56
2022-10-20 02:34:00,,0832.6,5.00,0.00,29.7,27.7,00.0,38.6,31.5,08.2,0000.0,0003.25,0010.99,0001.58
2022-10-20 02:35:00,,0832.6,5.01,0.00,29.7,27.9,00.0,38.6,31.5,08.2,0000.0,0003.25,0011.00,0001.60
2022-10-20 02:36:00,,0832.5,5.00,0.00,29.7,28.0,00.0,38.6,31.5,08.2,0000.0,0003.31,0011.14,0001.64
2022-10-20 02:37:00,,0832.6,4.99,0.00,29.7,28.0,00.0,38.6,31.5,08.3,0000.0,0003.33,0010.30,0001.67
2022-10-20 02:38:00,,0832.6,5.00,0.00,29.6,28.0,00.0,38.5,31.5,08.1,0000.0,0003.39,0010.98,0001.70
2022-10-20 02:39:00,,0832.6,5.00,0.00,29.6,28.1,00.0,38.5,31.5,08.2,0000.0,0003.45,0011.67,0001.73
2022-10-20 02:40:00,,0832.6,4.99,0.00,29.6,28.1,00.0,38.5,31.5,08.4,0000.0,0003.46,0011.89,0001.77
2022-10-20 02:41:00,,0832.6,5.01,0.00,29.6,28.2,00.0,38.5,31.5,08.6,0000.0,0003.52,0012.64,0001.81
2022-10-20 02:42:00,,0832.7,5.01,0.00,29.6,28.2,00.0,38.5,31.5,08.5,0000.0,0003.57,0013.57,0001.84
2022-10-20 02:43:00,,0832.7,5.00,0.00,29.6,28.2,00.0,38.5,31.5,08.3,0000.0,0003.56,0014.05,0001.87
2022-10-20 02:44:00,,0832.6,5.00,0.00,29.7,28.3,00.0,38.5,31.5,08.3,0000.0,0003.62,0014.56,0001.89
2022-10-20 02:45:00,,0832.6,5.00,0.00,29.7,28.3,00.0,38.5,31.6,08.4,0000.0,0003.66,0015.11,0001.92
2022-10-20 02:46:00,,0832.7,5.00,0.00,29.7,28.3,00.0,38.5,31.6,08.5,0000.0,0003.65,0014.65,0001.93
2022-10-20 02:47:00,,0832.7,5.01,0.00,29.7,28.4,00.0,38.5,31.6,08.6,0000.0,0003.66,0014.47,0001.93
2022-10-20 02:48:00,,0832.7,4.98,0.00,29.7,28.4,00.0,38.5,31.7,08.6,0000.0,0003.68,0015.35,0001.96
2022-10-20 02:49:00,,0832.6,5.01,0.00,29.8,28.4,00.0,38.6,31.7,08.5,0000.0,0003.70,0014.82,0001.97
2022-10-20 02:50:00,,0832.7,4.99,0.00,29.8,28.4,00.0,38.6,31.6,08.4,0000.0,0003.73,0015.17,0002.00
2022-10-20 02:51:00,,0832.6,5.01,0.00,29.8,28.4,00.0,38.6,31.7,08.4,0000.0,0003.74,0015.73,0002.02
2022-10-20 02:52:00,,0832.7,4.99,0.00,29.8,28.5,00.0,38.6,31.7,08.4,0000.0,0003.73,0015.71,0002.03
2022-10-20 02:53:00,,0832.6,5.00,0.00,29.8,28.5,00.0,38.6,31.7,08.4,0000.0,0003.75,0015.32,0002.06
2022-10-20 02:54:00,,0832.6,5.01,0.00,29.8,28.5,00.0,38.6,31.8,08.2,0000.0,0003.84,0015.64,0002.08
2022-10-20 02:55:00,,0832.7,5.00,0.00,29.8,28.5,00.0,38.6,31.7,08.2,0000.0,0003.90,0015.96,0002.10
2022-10-20 02:56:00,,0832.7,4.99,0.00,29.8,28.5,00.0,38.6,31.7,08.1,0000.0,0003.93,0017.54,0002.12
2022-10-20 02:57:00,,0832.7,5.00,0.00,29.8,28.5,00.0,38.6,31.7,08.3,0000.0,0004.00,0017.78,0002.14
2022-10-20 02:58:00,,0832.7,5.02,0.00,29.9,28.5,00.0,38.7,31.8,08.3,0000.0,0004.00,0017.80,0002.13
2022-10-20 02:59:00,,0832.7,4.99,0.00,29.9,28.5,00.0,38.7,31.8,08.1,0000.0,0004.01,0017.12,0002.11
